CAPE
0 0 0 0 0 0 0 0 0 0 0 0 0 0 0 0 0 0 0 0 0 0 0 0 0 0 0 0 0 0 0 0 0 0 0 0 0 0 0 0 0 0 0
0 0 0 0 0 0 0 0 0 0 0 0 0 0 0 0 0 0 0 0 0 0 0 0 0 0 0 0 0 0 0 0 0 0 0 0 0 0 0 0 0 0 0
0 0 0 0 0 0 0 0 0 0 0 0 0 0 0 0 0 0 0 0 0 0 0 0 0 0 0 0 0 0 0 0 0 0 0 0 0 0 0 0 0 0 0
0 0 0 0 0 0 0 0 0 0 0 1 0 0 0 0 0 0 0 0 0 0 0 0 0 0 0 0 0 0 0 0 0 0 0 0 0 0 0 0 0 0 0
0 0 0 0 0 0 0 2 2 0 0 0 0 0 0 0 0 0 0 0 0 0 0 0 0 0 0 0 0 0 0 1 0 0 0 0 0 0 0 0 0 0 0
0 0 0 0 0 0 0 0 0 0 0 0 0 0 0 0 0 0 0 0 0 0 0 0 0 0 0 0 0 0 2 0 0 0 0 0 0 0 0 0 0 0 0
0 0 0 0 0 0 0 0 0 0 0 0 0 0 0 0 0 0 0 0 0 0 0 0 0 0 0 0 0 0 0 0 4 0 0 0 0 0 0 0 0 0 0
0 0 0 0 0 0 0 0 0 0 0 0 0 0 0 0 0 0 0 0 0 0 0 0 0 0 0 2 0 0 0 0 0 0 0 0 0 0 0 0 0 0 0
0 0 0 0 0 0 0 0 0 0 0 0 0 0 0 0 0 0 0 0 0 0 0 0 0 0 0 3 0 0 0 0 0 0 2 3 3 2 3 0 0 0 0
0 0 0 0 0 0 0 0 0 0 0 0 0 0 0 0 0 0 0 0 0 0 0 0 0 1 0 3 0 0 0 0 0 0 0 0 0 0 0 0 0 0 0
0 0 0 0 0 0 0 0 0 0 0 0 0 0 0 0 0 0 0 0 0 0 0 0 0 0 2 4 3 0 0 0 0 0 0 0 0 0 0 0 0 0 0
0 0 0 0 0 0 0 0 0 0 0 0 0 0 0 0 0 0 0 0 1 0 0 0 0 2 2 3 1 1 1 0 0 0 0 0 0 0 0 0 0 0 0
1 1 0 0 0 0 0 0 0 0 0 0 0 0 0 0 0 0 0 0 0 0 0 0 1 0 0 0 1 1 0 0 0 0 0 0 0 0 0 0 0 0 0
0 0 0 0 0 0 0 0 0 0 0 0 0 0 0 0 0 0 0 0 0 0 0 0 0 0 0 0 0 0 0 0 0 0 0 0 0 0 0 0 0 0 0
0 0 0 0 0 0 0 0 0 0 0 0 0 0 0 0 0 0 4 0 0 0 0 0 0 0 0 0 0 0 0 0 0 0 0 0 0 0 0 0 0 0 0
0 0 0 0 0 0 0 0 0 0 0 1 0 0 0 0 0 0 1 0 0 0 0 0 0 0 0 0 0 0 0 0 0 0 0 0 0 0 0 0 0 0 0
0 0 0 0 0 0 0 0 1 0 0 0 0 0 0 0 0 0 0 0 0 0 0 0 0 0 0 0 0 0 0 0 0 0 0 0 0 0 0 0 0 0 0
0 0 0 1 0 0 1 1 1 0 1 0 0 0 0 0 0 0 0 0 0 0 0 0 0 0 0 0 0 0 0 0 0 0 0 0 0 0 0 0 0 0 0
0 0 0 0 0 0 0 1 0 0 1 0 0 0 0 0 0 0 0 0 0 0 0 0 0 0 0 0 0 0 0 0 0 0 0 0 0 0 0 0 0 0 0
0 0 0 0 0 0 0 0 0 1 1 0 0 0 0 0 0 0 0 0 0 0 0 0 0 0 0 0 0 0 0 0 0 0 0 0 0 0 0 0 0 0 0
0 0 1 0 0 0 1 0 0 0 1 0 0 0 0 0 0 0 0 0 0 0 0 0 0 0 0 0 0 0 0 0 0 0 0 0 0 0 0 0 0 0 0
0 0 0 0 0 0 0 0 1 0 0 0 0 0 0 0 0 0 0 0 0 0 0 0 0 0 0 0 0 0 0 0 0 0 0 0 0 0 0 0 0 0 0
0 0 0 0 0 0 0 0 0 0 0 0 0 0 0 0 0 0 0 0 0 0 0 0 0 0 0 0 0 0 0 0 0 0 0 0 0 0 0 0 0 0 0
0 0 0 0 0 0 0 0 0 0 0 0 0 0 0 0 0 0 0 0 0 0 0 0 0 0 0 0 0 0 0 0 0 0 0 0 0 0 0 0 0 0 0
0 0 0 0 0 0 0 0 0 0 0 0 0 0 0 0 0 0 0 0 0 0 0 0 0 0 0 0 0 0 0 0 0 0 0 0 0 0 0 0 0 0 0
0 0 0 0 0 0 0 0 0 0 0 0 0 0 0 0 0 0 0 0 0 0 0 0 0 0 0 0 0 0 0 0 0 0 0 0 0 0 0 0 0 0 0
CIN
0 0 0 0 0 0 0 0 0 0 0 0 0 0 0 0 0 0 0 0 0 0 0 0 0 0 0 0 0 0 0 0 0 0 0 0 0 0 0 0 0 0 0
0 0 0 0 0 0 0 0 0 0 0 0 0 0 -7 0 0 0 0 0 0 0 0 0 0 0 0 0 0 0 0 0 0 0 0 0 0 0 0 0 0 0 0
0 0 0 0 0 0 0 0 0 0 0 0 0 0 0 0 0 0 0 0 0 0 0 0 0 0 0 0 0 0 0 0 0 0 0 0 0 0 0 0 0 0 0
0 0 0 0 0 0 0 0 0 0 0 -30 0 0 0 0 0 0 0 0 0 0 0 0 0 0 0 0 0 0 -2 0 0 0 0 0 0 0 0 0 0 0 0
0 0 0 0 0 0 0 -57 -15 0 0 0 0 0 0 0 0 0 0 0 0 0 0 0 0 0 -0 0 0 0 0 -1 -0 0 0 0 0 0 0 0 0 0 0
0 0 0 0 0 0 0 0 0 0 0 0 0 0 0 0 0 0 0 0 0 0 0 0 0 0 0 0 0 0 -0 0 0 0 0 0 0 0 0 0 0 0 0
0 0 0 0 0 0 0 0 0 0 0 0 0 0 0 0 0 0 0 0 0 0 0 0 0 0 0 0 0 0 0 0 -0 -0 -0 -0 -0 0 0 0 0 0 0
0 0 0 0 0 0 0 0 0 0 0 0 0 0 0 0 0 0 0 0 0 0 0 0 0 0 0 -1 -2 0 0 0 0 0 0 0 0 0 0 0 0 0 0
0 0 0 0 0 0 0 -7 0 -3 0 0 0 0 0 0 0 0 0 0 0 0 0 0 -0 0 -0 -1 0 0 0 0 0 0 -0 -1 -1 -0 -0 -9 -2 -1 0
0 0 0 0 0 0 0 -1 0 0 0 0 0 0 0 0 0 0 0 0 0 0 0 0 0 -0 -0 0 0 0 0 0 0 0 0 0 0 0 0 0 0 0 0
0 0 0 0 0 0 0 0 0 0 0 0 0 0 0 0 0 0 0 0 0 0 0 0 0 0 -0 -1 -0 0 0 0 0 0 0 0 0 0 0 0 0 0 0
0 0 0 0 0 0 0 0 0 0 0 0 0 0 0 0 0 0 0 -0 -1 0 0 0 0 -1 -1 -0 -0 -0 0 0 0 0 0 0 0 0 0 0 0 0 0
-13 -18 0 0 0 0 0 0 0 0 0 0 0 0 0 0 0 0 0 -0 0 0 0 0 -1 -0 -0 0 -0 0 0 0 0 0 0 0 0 0 0 0 0 0 0
0 0 0 0 0 0 0 0 0 0 0 0 0 0 0 0 0 0 0 0 0 0 0 0 0 0 0 0 0 0 0 0 0 0 0 0 0 0 0 0 0 0 0
-0 0 0 0 0 0 0 0 0 0 0 0 0 0 0 0 0 -0 -1 0 0 0 0 0 0 0 0 0 0 0 0 0 0 0 0 0 0 0 0 0 0 0 0
-8 0 0 0 0 0 0 0 0 0 -3 -3 0 0 0 0 0 -0 -1 0 0 0 0 0 0 0 0 0 0 0 0 0 0 0 0 0 0 0 0 0 0 0 0
-13 0 0 0 0 0 0 -1 -2 0 -7 0 0 0 0 0 0 0 0 0 0 0 0 0 0 0 0 0 0 0 0 0 0 0 0 0 0 0 0 0 0 0 0
0 0 -5 -9 0 0 -4 -5 -6 -3 -4 0 0 0 0 0 0 0 0 0 0 0 0 0 0 0 0 0 0 0 0 0 0 0 0 0 0 0 0 0 0 0 0
0 0 0 0 0 0 0 -6 -4 -2 -7 0 0 0 0 0 0 0 0 0 0 0 0 0 0 0 0 0 0 0 0 0 0 0 0 0 0 0 0 0 0 0 0
0 0 -1 -1 0 0 -1 0 0 -7 -9 -7 0 0 0 0 0 0 0 0 0 0 0 0 0 0 0 0 0 0 0 0 0 0 0 0 0 0 0 0 0 0 0
0 0 -5 -5 0 0 -8 0 0 0 -9 0 0 0 0 0 0 0 0 0 0 0 0 0 0 0 0 0 0 0 0 0 0 0 0 0 0 0 0 0 0 0 0
0 0 0 0 0 0 -4 0 -10 0 0 0 0 0 0 0 0 0 0 0 0 0 0 0 0 0 0 0 0 0 0 0 0 0 0 0 0 0 0 0 0 0 0
0 0 0 0 0 0 0 0 0 0 0 0 0 0 0 0 0 0 0 0 0 0 0 0 0 0 0 0 0 0 0 0 0 0 0 0 0 0 0 0 0 0 0
0 0 0 0 0 0 0 0 0 0 0 0 0 0 0 0 0 0 0 0 0 0 0 0 0 0 0 0 0 0 0 0 0 0 0 0 0 0 0 0 0 0 0
0 0 0 0 0 0 0 0 0 0 0 0 0 0 0 0 0 0 0 0 0 0 0 0 0 0 0 0 0 0 0 0 0 0 0 0 0 0 0 0 0 0 0
0 0 0 0 0 0 0 0 0 0 0 0 0 0 0 0 0 0 0 0 0 0 0 0 0 0 0 0 0 0 0 0 0 0 0 0 0 0 0 0 0 0 0
Wind_Speed
29 29 30 32 32 31 32 32 32 32 33 33 34 33 31 32 31 30 31 31 33 33 31 30 31 32 34 36 35 36 36 37 42 42 38 37 34 33 36 35 34 34 34
28 30 32 33 33 33 33 34 33 34 33 35 35 34 32 31 30 27 28 30 32 31 30 31 33 34 36 37 38 39 38 37 38 43 40 37 35 35 34 34 34 33 32
32 34 35 37 37 37 36 35 35 34 33 34 35 32 29 28 24 25 27 30 31 29 30 31 33 35 36 37 37 38 37 36 35 38 39 34 34 33 34 35 35 35 34
37 38 38 39 40 40 38 35 34 32 35 37 34 27 25 22 23 25 29 32 30 29 29 30 32 33 35 37 37 36 36 37 34 35 36 35 33 33 32 37 39 35 37
39 40 41 40 40 40 38 36 34 36 35 33 29 24 18 20 23 26 31 30 30 30 31 31 32 32 34 34 35 37 36 36 36 36 36 34 33 34 36 34 37 37 37
42 40 39 40 40 39 39 38 37 35 33 31 23 19 20 21 22 27 29 28 28 30 32 32 33 33 32 32 36 36 34 36 36 35 36 35 34 33 35 37 37 37 36
38 38 38 39 40 42 41 38 35 33 28 22 18 19 17 21 22 28 29 30 31 31 33 33 33 32 34 33 31 29 29 30 31 34 35 34 34 31 33 36 35 34 34
38 38 39 40 42 42 40 35 31 25 23 20 18 15 17 22 26 28 29 31 32 32 32 32 32 31 29 25 25 25 22 22 22 24 26 32 32 32 30 33 35 33 34
39 39 40 40 41 40 36 31 25 24 19 18 16 17 20 24 27 27 28 31 32 32 31 30 29 28 24 25 23 20 18 16 15 15 23 38 38 36 33 28 30 31 33
39 38 38 38 38 35 31 25 22 22 18 17 18 20 21 24 26 27 30 31 33 32 31 30 28 26 23 27 28 27 22 17 10 5 23 31 32 33 34 36 35 36 34
36 36 36 36 36 31 28 24 21 19 19 18 19 20 21 24 25 27 30 30 32 32 31 29 28 27 29 29 28 24 22 22 17 13 19 22 24 25 26 29 31 32 31
36 35 35 35 33 29 24 20 20 18 17 18 20 22 21 23 24 26 29 29 31 31 29 27 26 30 27 27 26 26 22 14 6 17 17 16 17 18 18 21 25 27 29
36 36 35 32 30 28 23 20 19 18 18 20 21 22 23 22 23 25 28 28 30 30 27 29 31 28 26 25 25 19 10 4 15 17 17 17 17 18 18 18 19 21 24
38 36 32 30 27 23 21 20 18 17 19 21 22 22 23 24 24 25 27 26 30 29 28 29 30 26 24 26 23 11 5 7 15 15 15 16 17 17 17 17 17 16 16
37 35 30 27 24 21 21 20 19 18 17 19 20 21 23 24 24 25 27 28 30 30 28 29 31 30 30 30 28 3 8 17 17 16 16 17 16 16 15 15 16 16 16
35 32 26 25 21 21 22 23 20 18 18 18 19 19 20 19 21 24 26 26 28 30 27 27 30 30 30 29 26 20 19 19 18 16 16 15 14 14 14 14 15 15 16
31 29 23 22 21 22 24 22 21 20 20 20 20 21 20 20 21 24 24 24 26 28 28 26 29 29 29 27 27 24 22 19 17 16 15 14 14 14 15 15 15 16 16
27 24 22 20 18 20 22 21 21 20 19 20 19 19 19 19 20 21 21 22 25 26 26 25 26 28 28 27 26 25 24 21 21 19 18 16 16 15 16 16 17 17 18
24 23 22 20 16 19 22 21 20 19 16 17 18 20 18 17 18 19 20 21 23 23 24 24 23 27 27 26 26 26 25 24 22 21 21 20 19 18 18 18 18 19 19
21 21 20 19 18 20 21 21 20 19 17 16 17 18 18 17 18 19 19 19 20 19 20 21 22 22 27 26 25 25 25 25 23 22 22 22 21 21 20 20 20 20 21
21 20 18 16 16 17 18 18 17 16 15 15 15 15 15 15 15 17 18 18 17 17 18 18 21 20 22 26 25 25 25 25 24 23 23 23 22 22 22 21 21 21 21
17 15 17 18 17 17 17 17 17 15 15 15 15 16 14 14 14 14 15 15 14 14 15 15 18 19 18 22 25 26 26 25 25 24 24 23 23 22 22 22 21 21 21
14 14 13 14 16 15 16 16 17 15 15 15 16 16 15 14 14 14 13 13 13 12 13 13 14 18 17 18 21 24 26 26 25 24 24 24 23 23 22 22 22 21 21
13 12 13 12 12 14 14 14 14 14 15 16 16 17 15 14 14 13 13 12 12 11 12 12 12 14 17 17 18 20 24 25 24 24 24 24 24 23 22 22 21 21 21
15 14 15 14 14 15 16 16 16 15 15 15 17 17 17 16 14 14 13 12 11 11 10 10 11 12 13 16 16 19 22 24 24 24 23 23 23 22 22 22 22 21 22
19 17 16 16 16 16 17 17 17 17 16 15 17 17 18 18 15 13 13 12 11 10 9 9 9 11 12 14 15 17 20 22 23 23 22 21 22 22 21 22 22 22 22
Wind_Direction
342 343 343 341 339 337 334 334 332 331 331 330 330 330 330 331 332 331 332 334 333 334 332 330 325 322 319 317 315 314 311 309 304 303 303 303 302 302 301 302 302 300 296
342 341 339 338 337 335 333 332 331 329 331 331 332 330 329 333 333 335 337 338 338 337 336 332 327 323 319 318 315 312 310 309 306 302 303 300 298 299 300 299 299 298 296
339 337 337 337 337 335 332 330 330 330 331 331 330 328 326 332 338 340 341 340 340 339 336 333 330 327 324 321 318 315 313 311 309 305 302 303 299 299 297 296 295 293 290
338 338 338 337 335 334 334 332 331 331 330 331 330 330 332 338 343 343 342 339 339 339 339 336 333 330 327 324 321 318 316 312 310 306 304 302 301 299 296 293 289 291 287
341 340 339 340 341 341 339 336 335 331 331 335 335 334 338 343 344 344 342 341 340 340 338 336 335 333 330 328 325 321 317 313 308 305 302 301 299 296 292 293 288 288 286
339 339 341 342 342 342 340 337 334 334 334 335 333 342 338 341 347 346 343 343 342 340 338 337 335 334 333 330 326 322 318 313 309 305 301 298 298 297 293 287 285 285 282
341 341 342 342 341 340 338 338 338 339 346 353 346 344 348 349 349 344 345 344 342 342 340 339 338 338 334 333 332 331 327 320 313 306 301 299 298 298 292 284 280 280 279
342 341 341 341 340 341 342 343 345 351 352 357 359 6 359 354 350 349 349 348 346 345 344 342 341 341 342 344 343 340 339 334 328 321 311 302 299 295 291 283 277 277 278
340 340 341 342 342 344 345 348 353 356 1 8 16 11 3 357 354 353 352 351 349 348 350 349 348 349 352 351 348 345 343 342 340 330 318 282 280 279 281 283 272 273 273
339 340 342 343 344 345 348 351 353 357 6 10 8 6 4 359 358 357 355 354 353 354 354 354 355 357 358 356 353 350 351 354 354 341 249 265 270 275 264 255 260 258 260
339 341 343 345 345 346 347 351 355 359 359 2 4 4 4 1 1 359 358 359 358 357 358 359 359 359 359 358 359 2 4 3 338 243 249 250 254 251 245 245 245 247 250
341 342 343 344 346 347 347 349 350 357 2 0 0 0 3 2 2 2 1 2 360 1 2 3 3 358 5 6 8 8 14 29 244 267 265 263 258 260 263 250 240 239 241
344 343 343 346 347 349 352 355 355 359 359 358 359 360 2 3 4 4 3 4 3 5 8 2 353 4 10 13 16 31 54 247 273 272 261 255 257 258 258 261 259 258 254
344 343 344 347 350 355 356 354 358 2 0 359 360 2 3 3 5 6 6 8 5 8 10 5 355 8 17 14 23 57 81 266 284 275 266 261 257 260 257 262 261 266 261
347 347 349 352 354 357 356 355 356 360 2 1 3 4 3 3 7 8 8 9 6 9 13 6 351 353 358 347 333 301 269 300 299 287 281 277 269 263 257 260 248 244 244
347 349 353 355 358 356 352 348 353 358 1 5 5 6 7 11 12 11 11 13 10 11 17 14 355 345 348 336 322 303 301 303 301 291 291 282 266 257 254 256 250 251 253
349 353 356 357 355 352 346 348 350 352 356 2 5 7 11 15 16 15 16 17 15 14 16 18 359 342 338 335 329 320 311 303 295 292 293 285 276 269 271 270 274 273 274
353 355 356 355 356 354 352 347 347 351 355 359 5 8 14 17 18 19 22 21 17 17 18 21 11 342 335 336 331 326 319 312 313 308 303 299 295 288 286 287 287 287 289
354 355 355 356 359 354 348 346 347 350 356 359 3 5 12 16 19 21 24 22 19 20 19 20 23 354 334 332 332 327 325 320 317 316 314 311 307 304 301 300 299 300 299
354 356 357 355 355 351 349 345 347 349 352 357 358 2 8 14 15 17 22 22 22 22 23 20 22 18 342 332 330 327 326 323 319 319 318 318 317 314 309 307 308 308 305
352 354 354 354 355 356 351 349 348 350 351 353 356 360 5 8 10 13 15 19 21 23 23 22 18 20 9 340 331 325 324 323 323 319 317 318 317 317 315 315 314 314 313
349 351 356 356 354 354 353 350 348 348 347 348 351 354 359 2 4 7 11 16 22 26 27 26 21 20 21 2 334 324 319 319 320 320 318 318 318 318 317 319 320 321 320
346 348 347 349 352 350 349 350 346 344 344 345 345 349 353 354 357 0 5 11 18 25 27 28 26 18 20 18 4 340 323 317 318 318 317 317 317 318 318 320 322 324 325
341 340 342 342 343 345 343 339 340 341 340 339 340 340 342 345 350 354 358 5 12 19 24 27 28 24 17 17 15 1 341 328 323 318 317 316 315 316 319 320 321 323 323
326 329 331 329 331 335 338 338 335 333 332 333 333 333 334 338 340 347 354 359 5 11 18 23 27 26 21 14 16 8 354 338 330 325 320 319 316 317 320 322 322 322 324
331 325 322 326 324 325 328 330 332 330 327 327 330 330 330 331 331 335 342 350 356 2 10 17 23 25 24 17 14 11 1 350 338 332 328 328 320 319 320 322 323 323 325